WXM80 ListenWXM80 Stop

You find our weather info also at:

UK Metoffice

WeatherCloud

Weather Underground

Northeastern Weather Network

AWEKAS

Citizen Weather Observer Program (CWOP)

HAMweather, WeatherForYou, PWS Weather


Weather Underground History page Text

Daily Summary for April 15, 2016 Units:  English    Metric   Both
« Previous Day
Next Day »
Daily Weekly Monthly Yearly Custom
  High: Low: Average:
Temperature: TemperatureF °F 35.1 °F 47.4 °F
Dew Point: DewpointF °F 24.4 °F 32.4 °F
Humidity: Humidity % 25 % 61 %
Wind Speed: WindSpeedMPH mph 0.0 mph 2.1 mph
Wind Gust: WindSpeedGustMPH mph - -
Wind:- - SE
Pressure: PressureIn in 30.35 in -
Precipitation: 0.00 in    
Historical Graphs
 
 
Tabular Data for April 15, 2016
Time Temperature Dew Point Pressure Wind Wind Speed Wind Gust Humidity Rainfall Rate (Hourly)
TemperatureF °F DewpointF °F PressureIn in Calm     Humidity % HourlyPrecipIn in
00:02 40.0 °F 33.7 °F 30.38 in Calm     78 % 0.00 in
00:08 39.8 °F 33.8 °F 30.38 in Calm     79 % 0.00 in
00:13 39.6 °F 33.6 °F 30.38 in Calm     79 % 0.00 in
00:18 39.4 °F 33.7 °F 30.38 in SSE 0.1 mph 1.2 mph 80 % 0.00 in
00:23 39.2 °F 33.5 °F 30.38 in Calm     80 % 0.00 in
00:28 39.1 °F 33.8 °F 30.38 in SSE 0.8 mph 1.2 mph 81 % 0.00 in
00:33 38.9 °F 33.9 °F 30.38 in Calm     82 % 0.00 in
00:38 38.9 °F 33.9 °F 30.38 in SSE 0.4 mph 1.2 mph 82 % 0.00 in
00:43 38.8 °F 33.8 °F 30.38 in Calm     82 % 0.00 in
00:48 38.8 °F 33.8 °F 30.39 in Calm     82 % 0.00 in
00:53 38.7 °F 34.0 °F 30.38 in SSE 1.0 mph 2.3 mph 83 % 0.00 in
00:59 38.6 °F 33.9 °F 30.38 in SSE 1.3 mph 2.0 mph 83 % 0.00 in
01:04 38.4 °F 33.7 °F 30.38 in SSE 1.2 mph 2.3 mph 83 % 0.00 in
01:09 38.3 °F 33.9 °F 30.38 in SSE 1.1 mph 2.3 mph 84 % 0.00 in
01:14 38.2 °F 33.8 °F 30.38 in SSE 0.2 mph 1.2 mph 84 % 0.00 in
01:19 38.2 °F 34.1 °F 30.38 in SSE 1.2 mph 2.3 mph 85 % 0.00 in
01:24 38.1 °F 34.0 °F 30.38 in SSE 0.1 mph   85 % 0.00 in
01:29 38.1 °F 34.0 °F 30.38 in SSE 0.6 mph 2.3 mph 85 % 0.00 in
01:34 38.0 °F 34.2 °F 30.38 in SSE 0.5 mph 1.0 mph 86 % 0.00 in
01:39 38.0 °F 34.2 °F 30.38 in SSE 0.1 mph 2.3 mph 86 % 0.00 in
01:44 37.9 °F 34.1 °F 30.38 in SSE 1.2 mph 2.3 mph 86 % 0.00 in
01:50 37.9 °F 34.1 °F 30.38 in West 0.6 mph 2.3 mph 86 % 0.00 in
01:55 37.9 °F 34.4 °F 30.38 in West 1.4 mph 2.3 mph 87 % 0.00 in
02:00 37.8 °F 34.3 °F 30.38 in West 0.8 mph 2.3 mph 87 % 0.00 in
02:05 37.8 °F 34.6 °F 30.38 in West 1.6 mph 2.3 mph 88 % 0.00 in
02:10 37.9 °F 34.7 °F 30.38 in West 1.0 mph 3.5 mph 88 % 0.00 in
02:15 38.0 °F 35.0 °F 30.37 in West 1.7 mph 2.3 mph 89 % 0.00 in
02:20 38.0 °F 35.0 °F 30.37 in West 1.4 mph 3.0 mph 89 % 0.00 in
02:25 38.1 °F 35.1 °F 30.37 in West 0.9 mph 2.3 mph 89 % 0.00 in
02:30 38.1 °F 34.9 °F 30.37 in West 0.4 mph 2.3 mph 88 % 0.00 in
02:35 38.1 °F 34.9 °F 30.37 in West 0.8 mph 1.2 mph 88 % 0.00 in
02:41 38.1 °F 34.9 °F 30.36 in West 0.6 mph 2.3 mph 88 % 0.00 in
02:46 38.1 °F 34.9 °F 30.36 in West 0.9 mph 2.3 mph 88 % 0.00 in
02:51 38.0 °F 35.0 °F 30.36 in West 0.9 mph 1.2 mph 89 % 0.00 in
02:56 38.0 °F 35.0 °F 30.36 in West 0.9 mph 2.3 mph 89 % 0.00 in
03:01 38.0 °F 35.0 °F 30.36 in West 0.2 mph 1.2 mph 89 % 0.00 in
03:06 37.9 °F 34.9 °F 30.36 in West 1.0 mph 2.3 mph 89 % 0.00 in
03:11 37.9 °F 34.9 °F 30.36 in Calm   1.2 mph 89 % 0.00 in
03:16 37.9 °F 34.9 °F 30.36 in Calm     89 % 0.00 in
03:21 37.9 °F 34.9 °F 30.36 in West 0.2 mph 1.0 mph 89 % 0.00 in
03:26 37.8 °F 34.6 °F 30.37 in Calm     88 % 0.00 in
03:32 37.7 °F 34.5 °F 30.36 in Calm     88 % 0.00 in
03:37 37.6 °F 34.4 °F 30.36 in Calm     88 % 0.00 in
03:42 37.4 °F 33.9 °F 30.36 in Calm     87 % 0.00 in
03:47 37.2 °F 33.7 °F 30.37 in Calm   1.2 mph 87 % 0.00 in
03:52 37.0 °F 33.5 °F 30.37 in Calm     87 % 0.00 in
03:57 36.8 °F 33.3 °F 30.37 in Calm     87 % 0.00 in
04:02 36.6 °F 33.1 °F 30.37 in Calm     87 % 0.00 in
04:07 36.4 °F 33.2 °F 30.38 in West 0.1 mph 1.0 mph 88 % 0.00 in
04:12 36.3 °F 33.1 °F 30.37 in Calm     88 % 0.00 in
04:17 36.2 °F 33.0 °F 30.38 in Calm     88 % 0.00 in
04:23 36.1 °F 32.9 °F 30.38 in Calm     88 % 0.00 in
04:28 36.0 °F 32.8 °F 30.37 in Calm     88 % 0.00 in
04:38 35.7 °F 32.5 °F 30.37 in Calm     88 % 0.00 in
04:43 35.7 °F 32.5 °F 30.37 in Calm     88 % 0.00 in
04:48 35.5 °F 32.3 °F 30.37 in Calm     88 % 0.00 in
04:53 35.4 °F 32.5 °F 30.37 in Calm     89 % 0.00 in
04:58 35.3 °F 32.4 °F 30.38 in Calm     89 % 0.00 in
05:08 35.2 °F 32.3 °F 30.38 in Calm     89 % 0.00 in
05:14 35.2 °F 32.3 °F 30.38 in Calm     89 % 0.00 in
05:19 35.1 °F 32.5 °F 30.38 in Calm     90 % 0.00 in
05:24 35.1 °F 32.5 °F 30.38 in Calm     90 % 0.00 in
05:29 35.1 °F 32.5 °F 30.38 in Calm     90 % 0.00 in
05:34 35.1 °F 32.7 °F 30.38 in Calm     91 % 0.00 in
05:39 35.2 °F 32.8 °F 30.38 in Calm     91 % 0.00 in
05:44 35.3 °F 32.9 °F 30.38 in Calm     91 % 0.00 in
05:49 35.3 °F 33.2 °F 30.38 in Calm   1.2 mph 92 % 0.00 in
05:54 35.5 °F 33.4 °F 30.38 in Calm     92 % 0.00 in
05:59 35.5 °F 33.4 °F 30.38 in Calm     92 % 0.00 in
06:05 35.6 °F 33.5 °F 30.38 in Calm   1.2 mph 92 % 0.00 in
06:10 35.6 °F 33.8 °F 30.38 in Calm     93 % 0.00 in
06:15 35.7 °F 33.9 °F 30.39 in Calm     93 % 0.00 in
06:20 35.7 °F 33.9 °F 30.39 in Calm     93 % 0.00 in
06:25 35.8 °F 34.0 °F 30.39 in Calm     93 % 0.00 in
06:30 35.8 °F 34.0 °F 30.39 in Calm     93 % 0.00 in
06:35 35.9 °F 34.1 °F 30.39 in Calm     93 % 0.00 in
06:40 35.9 °F 34.1 °F 30.39 in Calm     93 % 0.00 in
06:45 36.0 °F 34.2 °F 30.39 in Calm     93 % 0.00 in
06:50 36.2 °F 34.4 °F 30.39 in Calm     93 % 0.00 in
06:56 36.4 °F 34.6 °F 30.39 in Calm     93 % 0.00 in
07:01 36.7 °F 35.1 °F 30.39 in Calm     94 % 0.00 in
07:06 37.0 °F 35.4 °F 30.39 in Calm     94 % 0.00 in
07:11 37.3 °F 35.7 °F 30.39 in West 0.1 mph 1.2 mph 94 % 0.00 in
07:16 37.7 °F 36.1 °F 30.39 in Calm   1.2 mph 94 % 0.00 in
07:21 38.0 °F 36.4 °F 30.39 in Calm     94 % 0.00 in
07:26 38.5 °F 36.9 °F 30.40 in Calm     94 % 0.00 in
07:31 39.1 °F 37.8 °F 30.40 in Calm   1.2 mph 95 % 0.00 in
07:36 39.8 °F 38.5 °F 30.40 in West 0.3 mph 3.5 mph 95 % 0.00 in
07:42 40.5 °F 39.2 °F 30.40 in NNE 2.0 mph 3.5 mph 95 % 0.00 in
07:47 41.4 °F 40.1 °F 30.40 in NNE 5.2 mph 8.1 mph 95 % 0.00 in
07:52 42.3 °F 41.0 °F 30.41 in NNE 4.1 mph 5.8 mph 95 % 0.00 in
07:57 43.0 °F 41.4 °F 30.41 in NNE 3.5 mph 5.8 mph 94 % 0.00 in
08:02 43.6 °F 40.9 °F 30.41 in NE 5.6 mph 7.0 mph 90 % 0.00 in
08:07 44.1 °F 39.6 °F 30.42 in ENE 5.1 mph 10.4 mph 84 % 0.00 in
08:12 44.6 °F 38.8 °F 30.42 in NNE 4.7 mph 8.1 mph 80 % 0.00 in
08:17 45.1 °F 39.0 °F 30.42 in NE 5.3 mph 10.4 mph 79 % 0.00 in
08:22 45.3 °F 38.5 °F 30.42 in NE 4.7 mph 8.1 mph 77 % 0.00 in
08:27 45.4 °F 37.9 °F 30.43 in ENE 4.7 mph 8.1 mph 75 % 0.00 in
08:33 45.2 °F 37.7 °F 30.43 in NE 6.7 mph 9.0 mph 75 % 0.00 in
08:38 45.2 °F 38.1 °F 30.43 in East 5.3 mph 8.0 mph 76 % 0.00 in
08:43 45.4 °F 38.3 °F 30.43 in ENE 3.1 mph 4.6 mph 76 % 0.00 in
08:48 45.7 °F 38.6 °F 30.43 in East 2.8 mph 4.6 mph 76 % 0.00 in
08:53 46.1 °F 39.0 °F 30.43 in ENE 4.4 mph 6.9 mph 76 % 0.00 in
08:58 46.6 °F 39.8 °F 30.43 in ENE 2.2 mph 4.6 mph 77 % 0.00 in
09:03 47.2 °F 39.7 °F 30.43 in East 2.1 mph 3.5 mph 75 % 0.00 in
09:08 47.6 °F 39.7 °F 30.43 in NE 3.5 mph 7.0 mph 74 % 0.00 in
09:13 48.0 °F 39.8 °F 30.43 in ENE 4.7 mph 8.1 mph 73 % 0.00 in
09:18 48.2 °F 39.9 °F 30.44 in NE 4.0 mph 7.0 mph 73 % 0.00 in
09:24 49.0 °F 41.1 °F 30.44 in ENE 3.5 mph 5.0 mph 74 % 0.00 in
09:29 49.7 °F 39.9 °F 30.44 in ENE 7.4 mph 10.4 mph 69 % 0.00 in
09:39 49.4 °F 38.5 °F 30.44 in ENE 5.6 mph 10.0 mph 66 % 0.00 in
09:44 49.3 °F 38.4 °F 30.44 in ENE 5.4 mph 8.0 mph 66 % 0.00 in
09:49 49.4 °F 38.1 °F 30.44 in ENE 3.2 mph 7.0 mph 65 % 0.00 in
09:54 49.7 °F 35.9 °F 30.44 in NE 6.2 mph 10.4 mph 59 % 0.00 in
09:59 49.8 °F 35.6 °F 30.44 in ENE 6.4 mph 11.5 mph 58 % 0.00 in
10:04 50.2 °F 36.0 °F 30.44 in ENE 7.4 mph 10.0 mph 58 % 0.00 in
10:09 50.1 °F 34.5 °F 30.44 in ENE 7.0 mph 10.4 mph 55 % 0.00 in
10:15 50.0 °F 34.0 °F 30.44 in ENE 9.1 mph 11.5 mph 54 % 0.00 in
10:20 49.8 °F 34.3 °F 30.44 in East 4.7 mph 9.2 mph 55 % 0.00 in
10:25 50.0 °F 34.9 °F 30.44 in NE 5.2 mph 8.1 mph 56 % 0.00 in
10:30 50.3 °F 34.3 °F 30.44 in NE 4.5 mph 10.4 mph 54 % 0.00 in
10:35 50.7 °F 33.7 °F 30.44 in East 5.9 mph 10.0 mph 52 % 0.00 in
10:40 50.9 °F 34.8 °F 30.45 in ENE 4.3 mph 6.9 mph 54 % 0.00 in
10:45 51.3 °F 34.7 °F 30.45 in ENE 5.0 mph 9.0 mph 53 % 0.00 in
10:50 51.4 °F 34.8 °F 30.45 in ENE 6.1 mph 9.2 mph 53 % 0.00 in
10:55 51.3 °F 33.8 °F 30.45 in ENE 5.2 mph 8.1 mph 51 % 0.00 in
11:00 51.4 °F 34.3 °F 30.45 in ENE 3.4 mph 6.9 mph 52 % 0.00 in
11:06 51.9 °F 33.3 °F 30.45 in NE 4.3 mph 6.0 mph 49 % 0.00 in
11:16 52.3 °F 32.6 °F 30.45 in ENE 4.7 mph 5.8 mph 47 % 0.00 in
11:21 52.8 °F 31.5 °F 30.45 in ESE 4.0 mph 7.0 mph 44 % 0.00 in
11:26 53.1 °F 29.4 °F 30.45 in ENE 4.8 mph 6.9 mph 40 % 0.00 in
11:31 53.6 °F 29.2 °F 30.44 in ENE 4.2 mph 6.9 mph 39 % 0.00 in
11:36 53.9 °F 26.8 °F 30.44 in East 5.3 mph 8.1 mph 35 % 0.00 in
11:41 53.7 °F 27.4 °F 30.44 in East 3.8 mph 5.8 mph 36 % 0.00 in
11:51 54.6 °F 28.2 °F 30.44 in East 3.1 mph 5.0 mph 36 % 0.00 in
11:57 55.0 °F 27.1 °F 30.44 in ENE 3.9 mph 6.9 mph 34 % 0.00 in
12:02 55.1 °F 27.9 °F 30.44 in ENE 3.5 mph 3.5 mph 35 % 0.00 in
12:07 55.2 °F 27.3 °F 30.44 in NE 3.2 mph 6.9 mph 34 % 0.00 in
12:12 54.9 °F 25.6 °F 30.44 in NNE 1.8 mph 3.5 mph 32 % 0.00 in
12:17 55.5 °F 25.3 °F 30.43 in ENE 2.4 mph 3.5 mph 31 % 0.00 in
12:22 56.0 °F 25.0 °F 30.43 in ENE 1.6 mph 3.5 mph 30 % 0.00 in
12:27 56.5 °F 28.4 °F 30.43 in East 1.9 mph 3.5 mph 34 % 0.00 in
12:32 56.9 °F 29.5 °F 30.43 in East 3.5 mph 4.6 mph 35 % 0.00 in
12:37 57.1 °F 26.7 °F 30.43 in NE 1.6 mph 4.6 mph 31 % 0.00 in
12:42 57.3 °F 26.1 °F 30.42 in ENE 1.7 mph 3.5 mph 30 % 0.00 in
12:48 57.7 °F 26.4 °F 30.42 in ENE 2.2 mph 4.0 mph 30 % 0.00 in
12:53 58.2 °F 26.9 °F 30.42 in NE 2.1 mph 4.0 mph 30 % 0.00 in
12:58 58.5 °F 30.2 °F 30.42 in ENE 2.6 mph 4.6 mph 34 % 0.00 in
13:03 58.3 °F 24.4 °F 30.42 in East 1.6 mph 3.5 mph 27 % 0.00 in
13:08 58.1 °F 27.6 °F 30.42 in ENE 1.0 mph 3.5 mph 31 % 0.00 in
13:13 58.2 °F 26.9 °F 30.42 in ENE 2.4 mph 3.5 mph 30 % 0.00 in
13:23 59.7 °F 26.5 °F 30.42 in NNE 0.6 mph 3.5 mph 28 % 0.00 in
13:28 59.8 °F 25.7 °F 30.42 in NNW 2.4 mph 3.5 mph 27 % 0.00 in
13:33 59.9 °F 30.7 °F 30.41 in NNE 1.4 mph 2.3 mph 33 % 0.00 in
13:39 60.7 °F 29.1 °F 30.41 in NE 1.6 mph 3.5 mph 30 % 0.00 in
13:44 61.3 °F 30.4 °F 30.41 in NNE 2.1 mph 3.5 mph 31 % 0.00 in
13:49 60.9 °F 26.7 °F 30.41 in ENE 2.6 mph 3.5 mph 27 % 0.00 in
13:54 60.4 °F 26.2 °F 30.41 in ENE 3.0 mph 4.6 mph 27 % 0.00 in
13:59 60.1 °F 27.7 °F 30.41 in NE 1.3 mph 5.8 mph 29 % 0.00 in
14:04 60.2 °F 28.6 °F 30.41 in NNE 3.1 mph 4.6 mph 30 % 0.00 in
14:09 60.8 °F 27.5 °F 30.41 in ENE 2.3 mph 6.9 mph 28 % 0.00 in
14:14 60.3 °F 26.1 °F 30.40 in ENE 1.5 mph 2.0 mph 27 % 0.00 in
14:19 60.7 °F 31.4 °F 30.40 in NNE 1.6 mph 3.5 mph 33 % 0.00 in
14:24 61.3 °F 29.6 °F 30.40 in NNE 2.0 mph 3.5 mph 30 % 0.00 in
14:30 61.3 °F 28.7 °F 30.40 in ENE 2.6 mph 3.5 mph 29 % 0.00 in
14:40 61.8 °F 28.3 °F 30.40 in North 3.3 mph 4.6 mph 28 % 0.00 in
14:45 61.9 °F 30.1 °F 30.39 in NNE 3.0 mph 4.0 mph 30 % 0.00 in
14:50 62.1 °F 28.6 °F 30.39 in North 2.5 mph 3.5 mph 28 % 0.00 in
14:55 62.1 °F 30.3 °F 30.39 in NNE 2.5 mph 3.5 mph 30 % 0.00 in
15:00 62.3 °F 27.9 °F 30.39 in NE 2.8 mph 4.6 mph 27 % 0.00 in
15:05 61.7 °F 29.1 °F 30.39 in ENE 1.7 mph 3.0 mph 29 % 0.00 in
15:10 61.4 °F 28.0 °F 30.39 in NE 2.1 mph 3.5 mph 28 % 0.00 in
15:21 61.5 °F 28.9 °F 30.38 in North 2.1 mph 3.0 mph 29 % 0.00 in
15:26 61.8 °F 30.8 °F 30.38 in ENE 1.8 mph 2.3 mph 31 % 0.00 in
15:31 62.0 °F 31.0 °F 30.37 in NE 2.9 mph 4.6 mph 31 % 0.00 in
15:36 61.7 °F 27.3 °F 30.37 in ENE 1.7 mph 3.5 mph 27 % 0.00 in
15:41 61.3 °F 26.1 °F 30.37 in ESE 0.8 mph 3.0 mph 26 % 0.00 in
15:46 61.4 °F 27.1 °F 30.37 in East 1.9 mph 3.5 mph 27 % 0.00 in
16:01 61.5 °F 26.3 °F 30.37 in ENE 1.8 mph 3.5 mph 26 % 0.00 in
16:06 61.5 °F 28.1 °F 30.37 in ENE 2.2 mph 3.5 mph 28 % 0.00 in
16:12 61.4 °F 28.8 °F 30.37 in NE 1.9 mph 3.5 mph 29 % 0.00 in
16:17 61.5 °F 26.3 °F 30.36 in ENE 2.4 mph 4.6 mph 26 % 0.00 in
16:22 61.3 °F 26.1 °F 30.36 in ENE 3.2 mph 4.6 mph 26 % 0.00 in
16:27 60.9 °F 29.2 °F 30.36 in ENE 2.1 mph 4.6 mph 30 % 0.00 in
16:32 60.8 °F 30.7 °F 30.36 in NE 2.1 mph 6.9 mph 32 % 0.00 in
16:37 60.8 °F 29.9 °F 30.36 in NE 2.6 mph 4.6 mph 31 % 0.00 in
16:42 60.8 °F 26.6 °F 30.35 in ENE 2.7 mph 4.6 mph 27 % 0.00 in
16:47 60.8 °F 27.5 °F 30.35 in NE 3.0 mph 3.5 mph 28 % 0.00 in
16:52 60.9 °F 28.4 °F 30.35 in East 2.5 mph 6.0 mph 29 % 0.00 in
16:57 61.0 °F 26.7 °F 30.35 in NE 2.9 mph 4.0 mph 27 % 0.00 in
17:03 61.1 °F 26.8 °F 30.35 in ENE 3.6 mph 4.0 mph 27 % 0.00 in
17:08 61.1 °F 25.9 °F 30.35 in ENE 2.2 mph 3.5 mph 26 % 0.00 in
17:13 61.2 °F 26.9 °F 30.35 in ENE 2.0 mph 3.5 mph 27 % 0.00 in
17:18 61.2 °F 26.0 °F 30.35 in ENE 1.8 mph 3.5 mph 26 % 0.00 in
17:23 61.2 °F 26.9 °F 30.35 in ENE 3.7 mph 4.6 mph 27 % 0.00 in
17:28 61.3 °F 26.1 °F 30.35 in ENE 2.3 mph 4.6 mph 26 % 0.00 in
17:33 61.3 °F 27.0 °F 30.35 in East 3.5 mph 6.0 mph 27 % 0.00 in
17:38 61.3 °F 25.1 °F 30.35 in SE 1.4 mph 3.5 mph 25 % 0.00 in
17:48 61.2 °F 25.1 °F 30.35 in East 2.5 mph 5.8 mph 25 % 0.00 in
17:54 61.2 °F 26.9 °F 30.35 in ENE 3.2 mph 4.6 mph 27 % 0.00 in
17:59 61.1 °F 26.8 °F 30.35 in East 1.4 mph 4.6 mph 27 % 0.00 in
18:04 60.9 °F 25.7 °F 30.35 in East 1.0 mph 2.3 mph 26 % 0.00 in
18:09 60.8 °F 30.7 °F 30.35 in SE 2.7 mph 5.8 mph 32 % 0.00 in
18:14 60.1 °F 34.4 °F 30.35 in South 4.5 mph 9.2 mph 38 % 0.00 in
18:19 59.0 °F 34.7 °F 30.35 in SSE 6.6 mph 9.0 mph 40 % 0.00 in
18:29 57.5 °F 34.0 °F 30.35 in South 2.9 mph 5.8 mph 41 % 0.00 in
18:34 56.6 °F 32.5 °F 30.35 in South 3.9 mph 10.4 mph 40 % 0.00 in
18:39 55.8 °F 32.4 °F 30.35 in SSE 2.3 mph 6.9 mph 41 % 0.00 in
18:45 55.3 °F 33.2 °F 30.35 in South 3.5 mph 6.9 mph 43 % 0.00 in
18:50 54.5 °F 32.4 °F 30.35 in South 4.8 mph 9.2 mph 43 % 0.00 in
18:55 53.9 °F 32.5 °F 30.35 in SSW 2.1 mph 6.9 mph 44 % 0.00 in
19:00 53.5 °F 31.5 °F 30.35 in South 5.0 mph 10.4 mph 43 % 0.00 in
19:05 53.0 °F 31.6 °F 30.35 in SSE 5.3 mph 9.2 mph 44 % 0.00 in
19:10 52.5 °F 31.8 °F 30.35 in SSE 3.4 mph 6.9 mph 45 % 0.00 in
19:15 52.2 °F 31.5 °F 30.35 in South 3.6 mph 6.9 mph 45 % 0.00 in
19:25 51.3 °F 32.3 °F 30.35 in SSE 3.3 mph 6.9 mph 48 % 0.00 in
19:30 50.9 °F 32.9 °F 30.35 in South 5.1 mph 7.0 mph 50 % 0.00 in
19:36 50.6 °F 33.1 °F 30.35 in South 5.1 mph 6.9 mph 51 % 0.00 in
19:41 50.3 °F 32.8 °F 30.35 in South 3.5 mph 5.8 mph 51 % 0.00 in
19:46 49.9 °F 33.0 °F 30.35 in SSE 4.1 mph 8.1 mph 52 % 0.00 in
19:51 49.6 °F 33.6 °F 30.36 in SSE 2.1 mph 4.6 mph 54 % 0.00 in
19:56 49.3 °F 34.3 °F 30.36 in SE 3.3 mph 8.1 mph 56 % 0.00 in
20:01 48.9 °F 34.8 °F 30.36 in South 3.9 mph 5.8 mph 58 % 0.00 in
20:06 48.5 °F 34.8 °F 30.36 in SW 4.1 mph 10.4 mph 59 % 0.00 in
20:11 48.3 °F 35.5 °F 30.36 in SSW 4.2 mph 8.1 mph 61 % 0.00 in
20:16 48.1 °F 35.3 °F 30.37 in South 3.1 mph 9.2 mph 61 % 0.00 in
20:22 47.8 °F 35.4 °F 30.37 in South 4.9 mph 9.0 mph 62 % 0.00 in
20:27 47.6 °F 35.6 °F 30.37 in SSW 4.3 mph 6.9 mph 63 % 0.00 in
20:32 47.4 °F 35.0 °F 30.37 in South 3.8 mph 8.1 mph 62 % 0.00 in
20:37 47.1 °F 33.5 °F 30.37 in South 3.6 mph 6.9 mph 59 % 0.00 in
20:42 47.0 °F 33.0 °F 30.37 in SSW 2.0 mph 5.8 mph 58 % 0.00 in
20:47 46.9 °F 32.0 °F 30.38 in SSW 3.0 mph 5.8 mph 56 % 0.00 in
20:52 46.8 °F 31.5 °F 30.38 in SSW 2.5 mph 4.6 mph 55 % 0.00 in
20:57 46.7 °F 31.4 °F 30.38 in South 3.3 mph 5.8 mph 55 % 0.00 in
21:02 46.6 °F 31.3 °F 30.38 in SSW 3.2 mph 4.6 mph 55 % 0.00 in
21:13 46.5 °F 30.7 °F 30.38 in South 3.6 mph 6.9 mph 54 % 0.00 in
21:18 46.4 °F 31.1 °F 30.38 in SSW 2.8 mph 6.9 mph 55 % 0.00 in
21:23 46.2 °F 30.9 °F 30.38 in SSW 3.0 mph 5.0 mph 55 % 0.00 in
21:28 46.1 °F 30.4 °F 30.38 in SSW 3.3 mph 4.6 mph 54 % 0.00 in
21:33 46.1 °F 30.4 °F 30.38 in SW 3.3 mph 5.8 mph 54 % 0.00 in
21:38 46.0 °F 30.3 °F 30.38 in SW 3.0 mph 3.5 mph 54 % 0.00 in
21:43 46.0 °F 30.3 °F 30.39 in SW 2.2 mph 4.6 mph 54 % 0.00 in
21:48 45.9 °F 30.2 °F 30.39 in SW 3.7 mph 4.6 mph 54 % 0.00 in
21:53 45.9 °F 30.6 °F 30.39 in Calm     55 % 0.00 in
21:58 45.8 °F 30.5 °F 30.39 in SW 0.7 mph 1.2 mph 55 % 0.00 in
22:04 45.7 °F 30.9 °F 30.40 in West 1.1 mph 3.5 mph 56 % 0.00 in
22:09 45.6 °F 31.7 °F 30.40 in West 0.2 mph 1.2 mph 58 % 0.00 in
22:14 45.5 °F 32.0 °F 30.40 in West 1.1 mph 3.5 mph 59 % 0.00 in
22:19 45.4 °F 32.3 °F 30.40 in West 0.3 mph 2.3 mph 60 % 0.00 in
22:24 45.2 °F 32.5 °F 30.40 in West 0.3 mph 1.2 mph 61 % 0.00 in
22:29 45.1 °F 32.4 °F 30.40 in Calm     61 % 0.00 in
22:34 45.0 °F 32.8 °F 30.40 in Calm     62 % 0.00 in
22:39 44.9 °F 32.7 °F 30.40 in Calm     62 % 0.00 in
22:49 44.5 °F 33.1 °F 30.39 in West 1.0 mph 2.3 mph 64 % 0.00 in
22:55 44.2 °F 32.8 °F 30.40 in West 0.1 mph 1.2 mph 64 % 0.00 in
23:00 44.0 °F 32.6 °F 30.39 in Calm     64 % 0.00 in
23:05 43.9 °F 32.9 °F 30.39 in Calm     65 % 0.00 in
23:10 43.6 °F 32.6 °F 30.39 in West 0.1 mph 1.0 mph 65 % 0.00 in
23:15 43.3 °F 33.1 °F 30.39 in Calm     67 % 0.00 in
23:20 43.1 °F 33.3 °F 30.39 in Calm     68 % 0.00 in
23:25 42.8 °F 33.3 °F 30.39 in Calm     69 % 0.00 in
23:30 42.6 °F 33.1 °F 30.39 in Calm     69 % 0.00 in
23:35 42.3 °F 32.8 °F 30.39 in Calm   1.2 mph 69 % 0.00 in
23:40 42.0 °F 32.9 °F 30.40 in Calm   1.2 mph 70 % 0.00 in
23:46 41.8 °F 32.7 °F 30.40 in Calm     70 % 0.00 in
23:51 41.6 °F 32.9 °F 30.40 in Calm   1.2 mph 71 % 0.00 in
23:56 41.4 °F 32.7 °F 30.40 in Calm     71 % 0.00 in
Crab Meadow Weather
Compliments of Weather Underground - 3 mb

Script developed by  Jim McMurry - jmcmurry@mwt.net Adapted for the template by  Wim van der Kuil - Leuven-Template.eu

Humidity: Humidity is the amount of water vapor in the air. The term "humidity" refers to relative humidity. Relative humidity is defined as the amount of water vapor in a sample of air compared to the maximum amount of water vapor the air can hold at any specific temperature in a form of 0 to 100%. Relative humidity is important in forecasting weather. Humidity indicates the likelihood of precipitation, dew, or fog. High humidity makes people feel hotter outside in the summer because it reduces the effectiveness of sweating to cool the body by preventing the evaporation of perspiration from the skin.